Location: Newark
(44.3681°N, 100.3364°W)
Time: 13:13:18
(UTC+00:00)

Explorer 7 - Pass Details

Date: 27 February 2020
Orbit: 485 x 679 km, 50.3° (Epoch: 29 March)

Event Time Altitude Azimuth Distance (km) Brightness Sun altitude
Rises 19:57:20 0° 287° (WNW) 2,940 10.6 35.4°
Reaches altitude 10° 19:59:51 10° 295° (WNW) 2,000 9.7 35.3°
Maximum altitude 20:04:09 39° 4° (N) 911 7.8 35.0°
Drops below altitude 10° 20:08:13 10° 74° (ENE) 1,882 9.3 34.7°
Sets 20:10:31 0° 83° (E) 2,743 10.1 34.6°
